COSMOS 1827

Satellite information

Favourite Embed

Satellite Type and Status

PAYLOADIN ORBIT

Key statistics

Satellite COSMOS 1827 at a glance.

Uptime

14114

Days in orbit

Revolutions

≈ 12.7

Per day

Orbit

LEO

Low Earth Orbit

Inclination

82.6

Latest

Satellite identification and parameters

Extended collection of information and parameters for COSMOS 1827.

Object identification

Identified? True

Debris? False

Object name: COSMOS 1827

International designator: 1987-026A

Object number (NORAD): 17582

Object ID (CCSDS): 17582

Country: COMMONWEALTH OF INDEPENDENT STATES (CIS)

Current information (Y/N): Y

RCS size: MEDIUM

Orbital parameters

Period: 113.833 minutes

Inclination: 82.5704 deg

SMA: 7780.477 km

Apoapsis: 1410.984 km

Periapsis: 1393.7 km

RAAN: 338.2439 deg

Eccentricy: 0.00111068

Argument of periapsis: 318.4569 deg

Mean anomaly: 41.5679 deg

Mean motion: 12.65008473 rev/day

Mean motion (dot): 0.00000043 rev/day2

B* drag term: 0.0001743843 1/REarth

Two-line elements (TLE)

Creation date: Nov. 1, 2025, 7:40 p.m.

Reference frame: TEME

Reference center: EARTH

Epoch: Nov. 1, 2025, 1:16 p.m. UTC

TLE line 0: 0 COSMOS 1827

TLE line 1: 1 17582U 87026A 25305.55279690 .00000043 00000-0 17438-3 0 9997

TLE line 2: 2 17582 82.5704 338.2439 0011107 318.4569 41.5679 12.65008473783869

Live tracking on map

Real-time ground track for satellite COSMOS 1827.

In-orbit conjunctions

A list of the most updated potential collisions computed for object COSMOS 1827.

Target Orbit TCA Probability of collision Miss distance Type
THORAD DELTA 1 DEB SSO 2024-12-05 19:36:58 0.0001024008 398.0 (m) DEBRIS
COSMOS 1829 LEO 2024-07-28 17:01:39 0.0001140795 263.0 (m) PAYLOAD

Associated space launch

Second generation store-dump military communications satellite

COSMOS 1827 was lifted into orbit during the mission ‘Tsiklon-3 | Strela-3 19 to 24’, on board a Tsiklon-3 space rocket.

The launch took place on March 13, 1987, 1:11 p.m. from 32/2.

For more information about the launch, click the button.

Launch to space Tsiklon-3 | Strela-3 19 to 24
Tsiklon-3 | Strela-3 19 to 24

Agency: N/A

Status: Launch Successful

Launch date: March 13, 1987, 1:11 p.m. UTC

Rocket: Tsiklon-3

Launch pad: 32/2

Location: Plesetsk Cosmodrome, Russian Federation

...

Latest news about this satellite

There are no fresh news available about this satellite. Check back as we update our databases every day.


Newsletter sign-up

Weekly statistics, charts and insights to help you stay on top of the space industry.